Date String (YYYY-MM-DD hh:mm:ss) UTC,Instrument flags,absolute air pressure of the measurement (hPa),sample flow rate (lpm),inlet stack bypass flow (lpm),air temperature of the measurement (°C),ambient temperature measured by the external sensor (°C),aerosol sample conditioner tube jacket temperature (°C),OPC LED temperature (°C),internal box temperature (°C),relative humidity of the measurement (%),span deviation,mass concentration of particles derived from Lorenz-Mie calculation of OPC scattering (μg/m³),mass concentration of particles derived from Lorenz-Mie calculation of OPC scattering (μg/m³),mass concentration of particles derived from Lorenz-Mie calculation of OPC scattering (μg/m³)
DateTimeUTC,F1_M11,P_M11,Q1_M11,Q2_M11,T1_M11,T2_M11,T3_M11,T4_M11,T5_M11,U1_M11,ZSPAN_M11,X0_M11,X2_M11,X1_M11
2023-10-04 00:00:00,SystemResetWarning,0827.6,4.99,000.00,028.7,027.3,000.0,037.1,030.3,12.3,0000.0,0003.13,0001.83,0001.27
2023-10-04 00:01:00,SystemResetWarning,0827.6,4.99,000.00,028.7,027.3,000.0,037.1,030.3,12.4,0000.0,0002.98,0001.80,0001.28
2023-10-04 00:02:00,SystemResetWarning,0827.5,5.00,000.00,028.7,027.3,000.0,037.1,030.3,12.3,0000.0,0002.98,0001.80,0001.27
2023-10-04 00:03:00,SystemResetWarning,0827.5,5.01,000.00,028.7,027.3,000.0,037.1,030.3,12.2,0000.0,0002.93,0001.77,0001.27
2023-10-04 00:04:00,SystemResetWarning,0827.5,5.00,000.00,028.7,027.2,000.0,037.1,030.3,12.2,0000.0,0002.91,0001.75,0001.27
2023-10-04 00:05:00,SystemResetWarning,0827.5,4.98,000.00,028.7,027.2,000.0,037.1,030.2,12.2,0000.0,0003.07,0001.69,0001.25
2023-10-04 00:06:00,SystemResetWarning,0827.6,5.00,000.00,028.7,027.2,000.0,037.1,030.2,12.2,0000.0,0003.91,0001.64,0001.24
2023-10-04 00:07:00,SystemResetWarning,0827.5,5.01,000.00,028.7,027.2,000.0,037.1,030.2,12.2,0000.0,0003.80,0001.61,0001.23
2023-10-04 00:08:00,SystemResetWarning,0827.5,5.01,000.00,028.7,027.2,000.0,037.1,030.2,12.2,0000.0,0003.57,0001.54,0001.22
2023-10-04 00:09:00,SystemResetWarning,0827.6,5.00,000.00,028.7,027.2,000.0,037.1,030.2,12.3,0000.0,0003.64,0001.55,0001.22
2023-10-04 00:10:00,SystemResetWarning,0827.6,4.99,000.00,028.7,027.2,000.0,037.1,030.2,12.3,0000.0,0003.60,0001.51,0001.23
2023-10-04 00:11:00,SystemResetWarning,0827.6,5.00,000.00,028.6,027.2,000.0,037.1,030.2,12.4,0000.0,0003.68,0001.51,0001.23
2023-10-04 00:12:00,SystemResetWarning,0827.5,5.01,000.00,028.6,027.2,000.0,037.1,030.1,12.3,0000.0,0003.65,0001.50,0001.22
2023-10-04 00:13:00,SystemResetWarning,0827.5,5.01,000.00,028.6,027.2,000.0,037.1,030.1,11.8,0000.0,0003.64,0001.50,0001.23
2023-10-04 00:14:00,SystemResetWarning,0827.5,4.99,000.00,028.6,027.2,000.0,037.1,030.2,11.8,0000.0,0003.66,0001.53,0001.23
2023-10-04 00:15:00,SystemResetWarning,0827.6,5.00,000.00,028.6,027.2,000.0,037.1,030.2,11.9,0000.0,0003.73,0001.53,0001.24
2023-10-04 00:16:00,SystemResetWarning,0827.7,4.99,000.00,028.6,027.2,000.0,037.1,030.2,12.0,0000.0,0003.53,0001.56,0001.25
2023-10-04 00:17:00,SystemResetWarning,0827.7,5.01,000.00,028.6,027.2,000.0,037.1,030.2,12.2,0000.0,0002.60,0001.57,0001.27
2023-10-04 00:18:00,SystemResetWarning,0827.7,5.02,000.00,028.6,027.3,000.0,037.1,030.2,12.1,0000.0,0002.68,0001.60,0001.28
2023-10-04 00:19:00,SystemResetWarning,0827.7,4.99,000.00,028.6,027.3,000.0,037.1,030.2,12.1,0000.0,0002.82,0001.63,0001.29
2023-10-04 00:20:00,SystemResetWarning,0827.7,4.99,000.00,028.6,027.3,000.0,037.1,030.2,12.1,0000.0,0002.77,0001.62,0001.29
2023-10-04 00:21:00,SystemResetWarning,0827.7,5.00,000.00,028.6,027.3,000.0,037.1,030.2,11.9,0000.0,0002.91,0001.65,0001.29
2023-10-04 00:22:00,SystemResetWarning,0827.7,5.01,000.00,028.6,027.3,000.0,037.1,030.2,11.7,0000.0,0003.08,0001.66,0001.30
2023-10-04 00:23:00,SystemResetWarning,0827.7,5.01,000.00,028.7,027.2,000.0,037.1,030.2,11.6,0000.0,0003.13,0001.68,0001.30
2023-10-04 00:24:00,SystemResetWarning,0827.7,4.98,000.00,028.7,027.2,000.0,037.1,030.2,11.7,0000.0,0003.25,0001.72,0001.30
2023-10-04 00:25:00,SystemResetWarning,0827.7,4.99,000.00,028.7,027.3,000.0,037.1,030.2,11.6,0000.0,0003.18,0001.70,0001.29
2023-10-04 00:26:00,SystemResetWarning,0827.7,5.01,000.00,028.7,027.3,000.0,037.1,030.2,11.8,0000.0,0003.29,0001.76,0001.30
2023-10-04 00:27:00,SystemResetWarning,0827.7,5.00,000.00,028.7,027.3,000.0,037.1,030.2,11.8,0000.0,0003.37,0001.81,0001.31
2023-10-04 00:28:00,SystemResetWarning,0827.7,5.00,000.00,028.7,027.3,000.0,037.1,030.3,11.8,0000.0,0003.97,0001.84,0001.30
2023-10-04 00:29:00,SystemResetWarning,0827.7,5.00,000.00,028.7,027.2,000.0,037.1,030.3,11.7,0000.0,0004.26,0001.84,0001.30
2023-10-04 00:30:00,SystemResetWarning,0827.8,5.00,000.00,028.7,027.2,000.0,037.2,030.3,11.6,0000.0,0004.36,0001.85,0001.31
2023-10-04 00:31:00,SystemResetWarning,0827.9,5.00,000.00,028.7,027.2,000.0,037.2,030.3,11.6,0000.0,0004.37,0001.88,0001.31
2023-10-04 00:32:00,SystemResetWarning,0827.8,5.00,000.00,028.7,027.2,000.0,037.1,030.3,11.7,0000.0,0004.37,0001.89,0001.31
2023-10-04 00:33:00,SystemResetWarning,0827.9,5.00,000.00,028.7,027.2,000.0,037.1,030.3,11.7,0000.0,0004.00,0001.85,0001.31
2023-10-04 00:34:00,SystemResetWarning,0827.8,5.00,000.00,028.7,027.2,000.0,037.2,030.3,11.6,0000.0,0003.86,0001.83,0001.31
2023-10-04 00:35:00,SystemResetWarning,0828.0,5.00,000.00,028.7,027.2,000.0,037.2,030.3,11.4,0000.0,0003.91,0001.81,0001.31
2023-10-04 00:36:00,SystemResetWarning,0828.0,5.00,000.00,028.7,027.3,000.0,037.2,030.3,11.4,0000.0,0003.83,0001.78,0001.31
2023-10-04 00:37:00,SystemResetWarning,0827.9,5.00,000.00,028.7,027.3,000.0,037.1,030.3,11.5,0000.0,0003.75,0001.74,0001.31
2023-10-04 00:38:00,SystemResetWarning,0827.9,5.00,000.00,028.7,027.3,000.0,037.2,030.3,11.5,0000.0,0003.58,0001.68,0001.31
2023-10-04 00:39:00,SystemResetWarning,0827.9,5.00,000.00,028.7,027.3,000.0,037.2,030.3,11.5,0000.0,0003.15,0001.67,0001.31
2023-10-04 00:40:00,SystemResetWarning,0827.9,5.00,000.00,028.7,027.3,000.0,037.2,030.3,11.5,0000.0,0002.78,0001.68,0001.30
2023-10-04 00:41:00,SystemResetWarning,0827.9,5.00,000.00,028.8,027.4,000.0,037.2,030.4,11.5,0000.0,0002.83,0001.68,0001.30
2023-10-04 00:42:00,SystemResetWarning,0827.8,5.00,000.00,028.8,027.4,000.0,037.2,030.4,11.5,0000.0,0003.10,0001.65,0001.28
2023-10-04 00:43:00,SystemResetWarning,0827.9,5.00,000.00,028.8,027.5,000.0,037.2,030.4,11.5,0000.0,0003.26,0001.65,0001.30
2023-10-04 00:44:00,SystemResetWarning,0827.9,4.99,000.00,028.8,027.5,000.0,037.2,030.4,11.5,0000.0,0003.49,0001.68,0001.29
2023-10-04 00:45:00,SystemResetWarning,0827.9,4.99,000.00,028.8,027.5,000.0,037.2,030.4,11.5,0000.0,0004.67,0001.69,0001.30
2023-10-04 00:46:00,SystemResetWarning,0827.8,5.00,000.00,028.8,027.6,000.0,037.2,030.4,11.6,0000.0,0004.51,0001.66,0001.29
2023-10-04 00:47:00,SystemResetWarning,0827.8,5.00,000.00,028.8,027.6,000.0,037.2,030.5,11.6,0000.0,0004.54,0001.67,0001.30
2023-10-04 00:48:00,SystemResetWarning,0827.8,5.01,000.00,028.9,027.6,000.0,037.3,030.5,11.6,0000.0,0004.51,0001.67,0001.29
2023-10-04 00:49:00,SystemResetWarning,0827.8,5.01,000.00,028.9,027.6,000.0,037.3,030.5,11.6,0000.0,0004.49,0001.68,0001.29
2023-10-04 00:50:00,SystemResetWarning,0827.8,5.00,000.00,028.9,027.6,000.0,037.3,030.5,11.7,0000.0,0004.42,0001.66,0001.29
2023-10-04 00:51:00,SystemResetWarning,0827.8,5.00,000.00,028.9,027.6,000.0,037.3,030.5,11.7,0000.0,0004.46,0001.67,0001.29
2023-10-04 00:52:00,SystemResetWarning,0827.8,5.00,000.00,028.9,027.6,000.0,037.3,030.5,11.7,0000.0,0004.38,0001.67,0001.29
2023-10-04 00:53:00,SystemResetWarning,0828.0,5.00,000.00,028.9,027.6,000.0,037.3,030.5,11.8,0000.0,0004.00,0001.64,0001.30
2023-10-04 00:54:00,SystemResetWarning,0827.7,5.00,000.00,028.9,027.6,000.0,037.3,030.5,11.8,0000.0,0003.75,0001.62,0001.29
2023-10-04 00:55:00,SystemResetWarning,0827.8,5.00,000.00,028.9,027.6,000.0,037.3,030.5,11.7,0000.0,0003.62,0001.62,0001.29
2023-10-04 00:56:00,SystemResetWarning,0827.8,5.00,000.00,028.9,027.6,000.0,037.3,030.5,11.6,0000.0,0002.54,0001.65,0001.29
2023-10-04 00:57:00,SystemResetWarning,0827.7,5.00,000.00,028.9,027.5,000.0,037.3,030.5,11.7,0000.0,0002.61,0001.69,0001.30
2023-10-04 00:58:00,SystemResetWarning,0827.7,5.00,000.00,028.9,027.5,000.0,037.3,030.5,11.7,0000.0,0002.66,0001.71,0001.30
2023-10-04 00:59:00,SystemResetWarning,0827.7,5.01,000.00,028.9,027.5,000.0,037.3,030.5,11.6,0000.0,0002.68,0001.71,0001.31
